Osoyoos, British Columbia

6:18 AM PDT on May 24, 2017 (GMT -0700)
Osoyoos

Weather History for CWYY - May, 2013

Change the Weather History Date:

Tuesday, May 7, 2013

  Actual Average (KOMK) Record (KOMK)
Temperature  
Mean Temperature 68 °F 55 °F  
Max Temperature 90 °F 70 °F 91 °F (1992)
Min Temperature 47 °F 41 °F 28 °F (2010)
Degree Days  
Heating Degree Days 0 10  
Month to date heating degree days 75  
Since 1 July heating degree days 6114  
Cooling Degree Days 4 0  
Month to date cooling degree days 0  
Year to date cooling degree days 1  
Growing Degree Days 18 (Base 50)    
Moisture  
Dew Point 42 °F    
Average Humidity 46    
Maximum Humidity 89    
Minimum Humidity 8    
Precipitation  
Precipitation 0.00 in 0.04 in 0.38 in (1999)
Month to date precipitation 0.32  
Year to date precipitation 5.85  
Sea Level Pressure  
Sea Level Pressure 29.78 in    
Wind  
Wind Speed 2 mph ()    
Max Wind Speed 9 mph    
Max Gust Speed -    
T = Trace of Precipitation, MM = Missing Value Source: Averaged Metar Reports

Daily Weather History Graph

Daily Weather History Graph

Search for Another Location

Airport or City:

Trip Planner

Search our weather history database for the weather conditions in past years. The results will help you decide how hot, cold, wet, or windy it might be!

Date:

Astronomy

May. 07, 2013 Rise Set
Actual Time 5:26 AM PDT 8:22 PM PDT
Civil Twilight 4:49 AM PDT 8:59 PM PDT
Nautical Twilight 4:02 AM PDT 9:47 PM PDT
Astronomical Twilight 3:04 AM PDT 10:46 PM PDT
Moon 4:14 AM PDT (5/7) 6:19 PM PDT (5/7)
Length of Visible Light 16h 10m
Length of Day
14h 56m
Waning Crescent, 5% of the Moon is Illuminated
May 7
Waning Crescent
May 9
New
May 17
First Quarter
May 24
Full
May 31
Last Quarter

Hourly Weather History & Observations

Time (PDT) Temp. Dew Point Humidity Pressure Visibility Wind Dir Wind Speed Gust Speed Precip Events Conditions
12:00 AM 56.5 °F 49.5 °F 77% 29.73 in - SE 1.2 mph - N/A   Unknown
1:00 AM 54.0 °F 48.0 °F 80% 29.74 in - NE 2.3 mph - N/A   Unknown
2:00 AM 52.3 °F 47.3 °F 83% 29.77 in - North 2.3 mph - N/A   Unknown
3:00 AM 52.9 °F 47.3 °F 81% 29.78 in - SSW 1.2 mph - N/A   Unknown
4:00 AM 49.6 °F 45.7 °F 86% 29.80 in - NE 2.3 mph - N/A   Unknown
5:00 AM 48 °F 45 °F 86% 29.81 in - North 1.2 mph - -  
5:00 AM 48.2 °F 45.1 °F 89% 29.81 in - North 1.2 mph - N/A   Unknown
6:00 AM 48.2 °F 44.6 °F 87% 29.83 in - NNE 3.5 mph - N/A   Unknown
7:00 AM 52.0 °F 46.6 °F 82% 29.84 in - Calm Calm - N/A   Unknown
8:00 AM 58.3 °F 45.3 °F 62% 29.85 in - East 1.2 mph - N/A   Unknown
10:00 AM 73.2 °F 44.8 °F 36% 29.83 in - NE 1.2 mph - N/A   Unknown
11:00 AM 79 °F 38 °F 13% 29.82 in - WNW 5.8 mph - -  
11:00 AM 78.8 °F 37.6 °F 23% 29.82 in - WNW 5.8 mph - N/A   Unknown
12:00 PM 81.7 °F 36.7 °F 20% 29.81 in - NW 9.2 mph - N/A   Unknown
1:00 PM 84.7 °F 35.2 °F 17% 29.79 in - WNW 5.8 mph - N/A   Unknown
2:00 PM 86.5 °F 40.3 °F 20% 29.78 in - NW 3.5 mph - N/A   Unknown
3:00 PM 86.9 °F 37.4 °F 17% 29.76 in - NNW 4.6 mph - N/A   Unknown
4:00 PM 88.2 °F 34.9 °F 15% 29.75 in - NNW 4.6 mph - N/A   Unknown
5:00 PM 89 °F 37 °F 8% 29.74 in - NW 3.5 mph - -  
5:00 PM 88.9 °F 37.0 °F 16% 29.74 in - NW 3.5 mph - N/A   Unknown
6:00 PM 88.9 °F 39.6 °F 18% 29.73 in - NW 3.5 mph - N/A   Unknown
7:00 PM 86.0 °F 40.6 °F 20% 29.73 in - NW 3.5 mph - N/A   Unknown
8:00 PM 77.4 °F 42.4 °F 29% 29.73 in - North 3.5 mph - N/A   Unknown
9:00 PM 73.6 °F 41.0 °F 31% 29.76 in - ENE 3.5 mph - N/A   Unknown
10:00 PM 67.8 °F 43.5 °F 41% 29.78 in - NNW 1.2 mph - N/A   Unknown
11:00 PM 61 °F 47 °F 50% 29.81 in - SE 1.2 mph - -  
11:00 PM 60.8 °F 47.3 °F 61% 29.81 in - SE 1.2 mph - N/A   Unknown